TimeMST,TemperatureF,Dew PointF,Humidity,Sea Level PressureIn,VisibilityMPH,Wind Direction,Wind SpeedMPH,Gust SpeedMPH,PrecipitationIn,Events,Conditions,WindDirDegrees,DateUTC
12:52 AM,21.0,15.1,78,30.17,10.0,SE,11.5,-,N/A,,Clear,130,2013-01-20 07:52:00
1:52 AM,19.9,15.1,81,30.14,10.0,SE,10.4,-,N/A,,Clear,130,2013-01-20 08:52:00
2:52 AM,18.0,15.1,88,30.14,10.0,ESE,5.8,-,N/A,,Clear,120,2013-01-20 09:52:00
3:52 AM,17.1,14.0,88,30.18,10.0,North,12.7,-,N/A,,Clear,10,2013-01-20 10:52:00
4:11 AM,15.8,12.2,86,30.08,10.0,NNE,15.0,-,N/A,,Partly Cloudy,20,2013-01-20 11:11:00
4:26 AM,15.8,12.2,86,30.11,10.0,NNE,17.3,-,N/A,,Mostly Cloudy,20,2013-01-20 11:26:00
4:52 AM,14.0,10.9,88,30.28,10.0,North,6.9,19.6,N/A,,Overcast,10,2013-01-20 11:52:00
5:52 AM,14.0,10.0,84,30.38,10.0,North,15.0,21.9,N/A,,Overcast,10,2013-01-20 12:52:00
6:52 AM,14.0,10.9,88,30.43,10.0,North,13.8,-,N/A,,Overcast,10,2013-01-20 13:52:00
7:06 AM,15.8,10.4,79,30.29,10.0,North,10.4,-,N/A,,Overcast,360,2013-01-20 14:06:00
7:36 AM,15.8,10.4,79,30.30,10.0,North,10.4,-,N/A,,Overcast,360,2013-01-20 14:36:00
7:52 AM,15.1,10.9,84,30.46,10.0,NNW,8.1,-,N/A,,Overcast,340,2013-01-20 14:52:00
8:52 AM,16.0,10.9,81,30.50,10.0,North,5.8,-,N/A,,Overcast,10,2013-01-20 15:52:00
9:18 AM,17.6,12.2,79,30.35,10.0,NNW,4.6,-,N/A,,Overcast,330,2013-01-20 16:18:00
9:38 AM,19.4,14.0,80,30.36,10.0,NNW,6.9,-,N/A,,Overcast,340,2013-01-20 16:38:00
9:52 AM,19.9,14.0,78,30.51,10.0,North,9.2,-,N/A,,Overcast,350,2013-01-20 16:52:00
10:13 AM,21.2,15.8,80,30.36,10.0,North,8.1,-,N/A,,Overcast,10,2013-01-20 17:13:00
10:52 AM,24.1,15.1,69,30.51,10.0,NNE,12.7,-,0.00,,Overcast,20,2013-01-20 17:52:00
11:52 AM,24.1,12.9,62,30.46,10.0,North,23.0,29.9,N/A,,Overcast,360,2013-01-20 18:52:00
12:52 PM,26.1,12.9,58,30.42,10.0,North,25.3,34.5,N/A,,Overcast,360,2013-01-20 19:52:00
1:52 PM,24.1,12.0,60,30.42,10.0,North,26.5,34.5,N/A,,Overcast,360,2013-01-20 20:52:00
2:52 PM,23.0,12.0,63,30.44,10.0,North,25.3,34.5,N/A,,Overcast,360,2013-01-20 21:52:00
3:52 PM,21.0,10.0,63,30.45,10.0,NNW,21.9,27.6,N/A,,Scattered Clouds,340,2013-01-20 22:52:00
4:52 PM,18.0,10.0,71,30.47,10.0,North,15.0,-,N/A,,Mostly Cloudy,350,2013-01-20 23:52:00
5:17 PM,17.6,8.6,68,30.30,10.0,NNE,15.0,-,N/A,,Overcast,20,2013-01-21 00:17:00
5:52 PM,16.0,8.1,71,30.48,10.0,North,19.6,26.5,N/A,,Overcast,10,2013-01-21 00:52:00
6:52 PM,15.1,7.0,70,30.50,10.0,North,11.5,-,N/A,,Overcast,360,2013-01-21 01:52:00
7:52 PM,14.0,6.1,71,30.51,9.0,North,12.7,19.6,0.00,Snow,Light Snow,360,2013-01-21 02:52:00
8:52 PM,12.9,5.0,71,30.50,9.0,North,19.6,25.3,0.00,Snow,Light Snow,360,2013-01-21 03:52:00
9:52 PM,12.9,5.0,71,30.48,10.0,North,20.7,-,0.00,,Overcast,350,2013-01-21 04:52:00
10:05 PM,12.2,5.0,73,30.31,10.0,North,18.4,26.5,N/A,,Overcast,350,2013-01-21 05:05:00
10:43 PM,12.2,6.8,79,30.32,10.0,North,11.5,-,0.00,Snow,Light Snow,350,2013-01-21 05:43:00
10:52 PM,12.9,6.1,74,30.47,9.0,North,11.5,-,0.00,Snow,Light Snow,350,2013-01-21 05:52:00
11:35 PM,12.2,6.8,79,30.31,10.0,North,12.7,-,0.00,,Overcast,350,2013-01-21 06:35:00
11:52 PM,12.9,6.1,74,30.46,10.0,NNW,11.5,-,0.00,,Overcast,340,2013-01-21 06:52:00